COSMOS 1275 DEB

Satellite information

Favourite Embed

Satellite Type and Status

DEBRISIN ORBIT

Key statistics

Satellite COSMOS 1275 DEB at a glance.

Uptime

16103

Days in orbit

Revolutions

≈ 14.0

Per day

Orbit

LEO

Low Earth Orbit

Inclination

83.2

Latest

Satellite identification and parameters

Extended collection of information and parameters for COSMOS 1275 DEB.

Object identification

Identified? True

Debris? True

Object name: COSMOS 1275 DEB

International designator: 1981-053NC

Object number (NORAD): 39942

Object ID (CCSDS): 39942

Country: COMMONWEALTH OF INDEPENDENT STATES (CIS)

Current information (Y/N): Y

RCS size: SMALL

Orbital parameters

Period: 103.081 minutes

Inclination: 83.1718 deg

SMA: 7282.484 km

Apoapsis: 938.83 km

Periapsis: 869.868 km

RAAN: 59.1516 deg

Eccentricy: 0.0047348

Argument of periapsis: 64.0372 deg

Mean anomaly: 296.5664 deg

Mean motion: 13.96958341 rev/day

Mean motion (dot): 0.00000973 rev/day2

B* drag term: 0.00068035 1/REarth

Two-line elements (TLE)

Creation date: July 1, 2025, 6:11 p.m.

Reference frame: TEME

Reference center: EARTH

Epoch: July 1, 2025, 9:18 a.m. UTC

TLE line 0: 0 COSMOS 1275 DEB

TLE line 1: 1 39942U 81053NC 25182.38796913 .00000973 00000-0 68035-3 0 9992

TLE line 2: 2 39942 83.1718 59.1516 0047348 64.0372 296.5664 13.96958341562619

Live tracking on map

Real-time ground track for satellite COSMOS 1275 DEB.

In-orbit conjunctions

A list of the most updated potential collisions computed for object COSMOS 1275 DEB.

Target Orbit TCA Probability of collision Miss distance Type
CZ-6A DEB LEO 2025-04-28 04:29:04 0.0001457759 79.0 (m) DEBRIS
COSMOS 1275 DEB LEO 2024-09-27 12:02:58 0.0005352721 336.0 (m) DEBRIS

Associated space launch

Navigation satellite providing location information for the Tsiklon-B navigation system

COSMOS 1275 DEB was lifted into orbit during the mission ‘Kosmos-3M | Parus 27’, on board a Kosmos-3M space rocket.

The launch took place on June 4, 1981, 3:41 p.m. from 132/2.

For more information about the launch, click the button.

Launch to space Kosmos-3M | Parus 27
Kosmos-3M | Parus 27

Agency: N/A

Status: Launch Successful

Launch date: June 4, 1981, 3:41 p.m. UTC

Rocket: Kosmos-3M

Launch pad: 132/2

Location: Plesetsk Cosmodrome, Russian Federation

...

Latest news about this satellite

There are no fresh news available about this satellite. Check back as we update our databases every day.


Newsletter sign-up

Weekly statistics, charts and insights to help you stay on top of the space industry.